Regional Weather Roundup
Issued by NWS

Home | Current Version | Previous Version | Text Only | Print | Product List | Glossary Off
Versions: 1 2 3 4 5 6 7 8 9 10 11 12 13 14 15 16 17 18 19 20 21 22 23 24 25 26 27 28 29 30 31 32 33 34 35 36 37 38 39 40 41 42 43 44 45 46 47 48 49 50

000
ASUS46 KSTO 250704
RWRCA

NORTHERN AND CENTRAL CA REGIONAL WEATHER ROUNDUP
NATIONAL WEATHER SERVICE SACRAMENTO CA
1200 AM PDT SAT OCT 25 2014

NOTE: FAIR INDICATES FEW OR NO CLOUDS BELOW 12,000 FEET WITH NO
SIGNIFICANT WEATHER AND/OR OBSTRUCTIONS TO VISIBILITY.

CAZ001-003-250800-
NORTHWEST AREA

CITY           SKY/WX    TMP DP  RH WIND       PRES   REMARKS
CRESCENT CITY  MOCLDY    62  55  77 SE14      29.61F
UKIAH          CLOUDY    62  54  74 S14G21    29.85S
$$

CAZ006-505>513-250800-
BAY AREA

CITY           SKY/WX    TMP DP  RH WIND       PRES   REMARKS
SANTA ROSA     CLOUDY    63  55  75 SE8       29.88F
SAN RAFAEL     N/A       63  MM  MM MISG
NAPA           CLOUDY    61  57  87 S9        29.91F
CONCORD        CLOUDY    62  54  74 S5        29.92R
OAKLAND CITY   N/A       65  MM  MM MISG
OAKLAND        CLOUDY    65  55  70 S12       29.93S
SAN FRAN CITY  N/A       65  MM  65 MISG
SAN FRAN ARPT  MOCLDY    69  55  60 S13       29.92F
LIVERMORE      CLOUDY    63  53  70 W10G21    29.94R
HAYWARD        CLOUDY    67  57  70 SE7       29.93R
REDWOOD CITY   N/A       MM  MM  MM MISG
MOFFETT ARPT   MOCLDY    65  59  81 SE15      29.95R
SAN JOSE ARPT  MOCLDY    62  54  74 E9        29.95R
$$
CAZ034-037-514>518-250800-
CENTRAL COAST

CITY           SKY/WX    TMP DP  RH WIND       PRES   REMARKS
WATSONVILLE    MOCLDY    59  55  87 NW3       29.98R
SALINAS        MOCLDY    56  51  84 E5        29.98R
MONTEREY       PTCLDY    62  52  69 SE8       29.98S
SAN LUIS OBISP CLEAR     58  55  90 E3        30.02R
SANTA MARIA    CLOUDY    62  55  77 CALM      30.02S
$$
CAZ015-016-250800-
NORTHERN SACRAMENTO VALLEY

CITY           SKY/WX    TMP DP  RH WIND       PRES   REMARKS
REDDING        CLOUDY    58  55  90 CALM      29.81F
RED BLUFF      CLOUDY    63  52  67 SE13      29.82F
OROVILLE       PTCLDY    63  50  62 S9        29.91R
$$
CAZ016>018-250800-
SOUTHERN SACRAMENTO VALLEY

CITY           SKY/WX    TMP DP  RH WIND       PRES   REMARKS
AUBURN         PTCLDY    54  48  82 CALM      29.93S
BEALE AFB      PTCLDY    62  53  72 SE13      29.89R
LINCOLN        FAIR      61  52  72 SE8       29.90S
MARYSVILLE     PTCLDY    61  53  75 S8        29.90R
SAC INTL ARPT  MOCLDY    62  54  74 SW17      29.90R
MATHER AIRPORT NOT AVBL
DOWNTOWN SAC   N/A       62  MM  MM MISG
SAC EXEC ARPT  MOCLDY    62  55  77 SW7       29.91R
VACAVILLE      MOCLDY    64  54  69 SW9G20    29.92R
TRAVIS AFB     CLOUDY    62  58  88 SW13      29.91R
$$
CAZ019>021-250800-
SAN JOAQUIN VALLEY

CITY           SKY/WX    TMP DP  RH WIND       PRES   REMARKS
STOCKTON       PTCLDY    57  53  86 CALM      29.91R
MODESTO        CLEAR     56  52  86 SE7       29.90F
MERCED         CLEAR     59  52  77 NW3       29.92S
LEMOORE        CLEAR     58  32  37 SE6       29.93S
FRESNO         CLEAR     66  45  46 CALM      29.95R
HANFORD        CLEAR     55  46  71 E6        29.94R
PORTERVILLE    CLEAR     57  45  62 E5        29.96S
BAKERSFIELD    CLEAR     69  48  47 N5        29.94R
$$
CAZ011-012-071-250800-
NORTHERN MOUNTAINS

CITY           SKY/WX    TMP DP  RH WIND       PRES   REMARKS
YREKA          PTCLDY    59  43  55 SE26G37   29.75F
MOUNT SHASTA   MOCLDY    52  45  77 SE6       29.85F
ALTURAS        MOCLDY    57  29  34 S10       29.91F
$$
CAZ011-012-071-250800-
SIERRA NEVADA MTNS

CITY           SKY/WX    TMP DP  RH WIND       PRES   REMARKS
BLUE CANYON    CLEAR     56  29  35 S13G26    30.05F
TRUCKEE        CLEAR     55  21  26 S24G31    30.05F
TAHOE VLY ARPT CLEAR     58  17  20 S15G24    30.06F
MAMMOTH LAKES  FAIR      43  14  31 CALM      30.19S
$$




USA.gov is the U.S. government's official web portal to all federal, state and local government web resources and services.